Regional Weather Roundup
Issued by NWS

Home | Current Version | Previous Version | Text Only | Print | Product List | Glossary Off
Versions: 1 2 3 4 5 6 7 8 9 10 11 12 13 14 15 16 17 18 19 20 21 22 23 24 25 26 27 28 29 30 31 32 33 34 35 36 37 38 39 40 41 42 43 44 45 46 47 48 49 50

000
ASUS45 KPSR 290610
RWRAZ

ARIZONA HOURLY REGIONAL WEATHER ROUNDUP
NATIONAL WEATHER SERVICE PHOENIX AZ
1100 PM MST SUN MAY 28 2017

NOTE: FAIR INDICATES FEW OR NO CLOUDS BELOW 12,000 FEET WITH NO
SIGNIFICANT WEATHER AND/OR OBSTRUCTIONS TO VISIBILITY.

AZZ001>003-036-290700-
NORTHWEST ARIZONA

CITY           SKY/WX    TMP DP  RH WIND       PRES   REMARKS
BULLHEAD CITY  CLEAR     84  14   7 NE7       29.79F
KINGMAN        CLEAR     64  17  16 MISG      30.00S
6HR MIN TEMP:  64; 6HR MAX TEMP:  92;

$$

AZZ004>008-015-016-018-290700-
NORTH CENTRAL ARIZONA

CITY           SKY/WX    TMP DP  RH WIND       PRES   REMARKS
GRAND CANYON   CLEAR     53  23  31 E7        30.22F
6HR MIN TEMP:  44; 6HR MAX TEMP:  76;

WILLIAMS       PTCLDY    52  27  37 S9        30.21S
PRESCOTT       CLEAR     64  24  21 S8        30.10R
6HR MIN TEMP:  62; 6HR MAX TEMP:  81;

FLAGSTAFF      CLEAR     49  20  31 SW3       30.24R
6HR MIN TEMP:  49; 6HR MAX TEMP:  73;

PAYSON         CLEAR     66  25  20 N5        30.14S
PAGE           CLEAR     70  19  14 SE5       30.07S
6HR MIN TEMP:  69; 6HR MAX TEMP:  84;

$$

AZZ009>014-017-290700-
NORTHEAST ARIZONA

CITY           SKY/WX    TMP DP  RH WIND       PRES   REMARKS
WINSLOW        CLEAR     58  16  19 SW7       30.11R
6HR MIN TEMP:  58; 6HR MAX TEMP:  86;

SAINT JOHNS    CLEAR     66  26  22 SE10      30.14R
6HR MIN TEMP:  64; 6HR MAX TEMP:  83;

WINDOW ROCK    PTCLDY    49  21  33 CALM      30.25S
6HR MIN TEMP:  47; 6HR MAX TEMP:  75;

SHOW LOW       CLEAR     48  10  21 CALM      30.20S
$$

AZZ540-542>544-546-548-290700-
GREATER PHOENIX AREA

CITY           SKY/WX    TMP DP  RH WIND       PRES   REMARKS
PHOENIX        CLEAR     88  22   9 W3        29.79S
6HR MIN TEMP:  88; 6HR MAX TEMP: 101;

BUCKEYE        CLEAR     77  14   9 N7        29.81S
LUKE AFB       CLEAR     80  33  17 NW6       29.79S
6HR MIN TEMP:  79; 6HR MAX TEMP: 100;

DEER VALLEY    CLEAR     78  22  12 CALM      29.82S
6HR MIN TEMP:  78; 6HR MAX TEMP:  97;

SCOTTSDALE     CLEAR     84  29  13 CALM      29.84S
6HR MIN TEMP:  83; 6HR MAX TEMP:  99;

MESA-GATEWAY   CLEAR     75  28  17 E6        29.83F
$$

AZZ539-553-290700-
SOUTHWEST MARICOPA COUNTY AND PINAL COUNTY

CITY           SKY/WX    TMP DP  RH WIND       PRES   REMARKS
CASA GRANDE    CLEAR     81  17   9 W9        29.84S
6HR MIN TEMP:  81; 6HR MAX TEMP:  98;

GILA BEND      FAIR      81  14   8 CALM      29.79S
6HR MIN TEMP:  81; 6HR MAX TEMP: 101;

$$

AZZ503-504-507>509-290700-
SOUTHEAST ARIZONA

CITY           SKY/WX    TMP DP  RH WIND       PRES   REMARKS
TUCSON         CLEAR     81  19  10 NW5       29.92S
6HR MIN TEMP:  81; 6HR MAX TEMP:  98;

DAVIS-MONTHAN  CLEAR     78  20  11 NW3       29.91S
6HR MIN TEMP:  78; 6HR MAX TEMP:  96;

NOGALES        CLEAR     67  24  19 E6        30.02S
6HR MIN TEMP:  67; 6HR MAX TEMP:  93;

SIERRA VISTA   CLEAR     71  10   9 W10       30.08R
6HR MIN TEMP:  69; 6HR MAX TEMP:  89;

DOUGLAS        CLEAR     63   9  12 E6        30.02R
6HR MIN TEMP:  62; 6HR MAX TEMP:  92;

SAFFORD        CLEAR     72  14  11 NW7       29.92S
6HR MIN TEMP:  72; 6HR MAX TEMP:  95;

$$

AZZ532-290700-
SOUTHWEST ARIZONA

CITY           SKY/WX    TMP DP  RH WIND       PRES   REMARKS
YUMA           CLEAR     84  34  16 SW3       29.78S
6HR MIN TEMP:  84; 6HR MAX TEMP: 101;

$$

CAZ041-043-047-048-061-525>527-560>570-290700-
SOUTHERN CALIFORNIA

CITY           SKY/WX    TMP DP  RH WIND       PRES   REMARKS
DOWNTOWN L.A.  CLEAR     62  55  77 CALM      29.98R
6HR MIN TEMP:  62; 6HR MAX TEMP:  73;

L.A. AIRPORT   PTCLDY    61  58  90 SW6       29.98S
6HR MIN TEMP:  61; 6HR MAX TEMP:  67;

SAN DIEGO      CLOUDY    62  57  83 CALM      30.00F
6HR MIN TEMP:  62; 6HR MAX TEMP:  68;

BURBANK        CLEAR     63  52  67 E7        29.97S
6HR MIN TEMP:  63; 6HR MAX TEMP:  77;

ONTARIO        PTCLDY    64  54  69 W9        29.98R
6HR MIN TEMP:  64; 6HR MAX TEMP:  84;

RIVERSIDE      CLEAR     64  55  72 W7        29.98R
6HR MIN TEMP:  64; 6HR MAX TEMP:  82;

PALM SPRINGS   CLEAR     88  46  23 NW13      29.82S
6HR MIN TEMP:  88; 6HR MAX TEMP: 103;

EL CENTRO NAS  CLEAR     80  38  22 W7        29.79S
6HR MIN TEMP:  80; 6HR MAX TEMP: 102;

IMPERIAL       CLEAR     80  45  28 W10       29.77R
6HR MIN TEMP:  80; 6HR MAX TEMP: 102;

BLYTHE         CLEAR     89  26  10 SW10      29.77S
6HR MIN TEMP:  89; 6HR MAX TEMP: 102;

NEEDLES        CLEAR     86  11   6 W8        29.80F
6HR MIN TEMP:  86; 6HR MAX TEMP: 105;

$$

NVZ020-UTZ003-290700-
SOUTHERN NEVADA-UTAH

CITY           SKY/WX    TMP DP  RH WIND       PRES   REMARKS
LAS VEGAS      CLEAR     83  15   8 W5        29.90S
6HR MIN TEMP:  82; 6HR MAX TEMP:  95;

SALT LAKE CITY CLEAR     63  41  44 SE3       30.14F
6HR MIN TEMP:  63; 6HR MAX TEMP:  79;

$$

NMZ009-TXZ055-290700-
NEW MEXICO-WEST TEXAS

CITY           SKY/WX    TMP DP  RH WIND       PRES   REMARKS
ALBUQUERQUE    PTCLDY    65  33  30 SE10      30.19S
6HR MIN TEMP:  64; 6HR MAX TEMP:  79;

EL PASO        CLEAR     75  37  25 E14       30.07R
6HR MIN TEMP:  75; 6HR MAX TEMP:  87;

$$


........................KEY........................
SKY/WX - SKY CONDITION/WEATHER
TMP    - TEMPERATURE IN FAHRENHEIT
DP     - DEW POINT IN FAHRENHEIT
RH     - RELATIVE HUMIDITY IN PERCENT
WIND   - DIRECTION AND SPEED IN MILES PER HOUR (MPH)
VRB    - VARIABLE WIND DIRECTION
PRES   - MEAN SEA LEVEL PRESSURE IN INCHES OF MERCURY
         F - FALLING PRESSURE   R - RISING PRESSURE
         S - STEADY PRESSURE
VSB    - VISIBILITY IN MILES
HX     - HEAT INDEX IN FAHRENHEIT
WCI    - WIND CHILL INDEX IN FAHRENHEIT
TC     - TEMPERATURE IN CELSIUS WHICH IS ALSO KNOWN AS
         TEMPERATURE IN CENTIGRADE
AFB    - AIR FORCE BASE
         LUKE AFB IS LUKE AIR FORCE BASE
         DAVIS-MONTHAN IS DAVIS-MONTHAN AIR FORCE BASE
NAS    - NAVAL AIR STATION
         EL CENTRO NAS IS EL CENTRO NAVAL AIR STATION
N/A    - NOT AVAILABLE




USA.gov is the U.S. government's official web portal to all federal, state and local government web resources and services.